Flag for U.S.A. Weather past 2 weeks in Bridgeport, Connecticut, U.S.A.

Now
72 °F

Passing clouds.


Feels Like: 75 °F
Forecast: 65 / 74 °F
Wind: 9 mph from Southeast

Location: Sikorsky Memorial Airport

Current Time: Aug 23, 2014 at 2:02:03 PM

Latest Report: Aug 23, 2014 at 12:52 PM


Visibility: 10 mi

Pressure: 30.09 "Hg

Humidity: 66%

Dew point: 60 °F

Location of BridgeportLocation

Historic Weather in Bridgeport — Graph

°F

Bridgeport temperature yesterday

Maximum temperature yesterday: 74 °F (at 1:52 PM)
Minimum temperature yesterday: 67 °F (at 2:52 AM)
Average temperature yesterday: 70 °F

Past Weeks' High & Low Weather Summary

 TemperatureHumidityPressure
High85 °F (Aug 10, 4:52 PM)97% (Aug 13, 7:52 AM)30.15 "Hg (Aug 13, 7:52 AM)
Low59 °F (Aug 15, 3:52 AM)34% (Aug 10, 4:52 PM)29.63 "Hg (Aug 13, 5:52 PM)
Average72 °F68%29.97 "Hg
* Reported Aug 8 12:52 PM — Aug 23 12:52 PM, Bridgeport, Weather by CustomWeather, © 2014

Note: Actual official high and low records may vary slightly from our data, if they occured in-between our weather recording intervals... More about our weather records

Advertising

Bridgeport weather history for previous 24 hours

 ConditionsComfort  
Time TempWeatherWind HumidityBarometerVisibility
12:52 PM
Aug 23
72 °FPassing clouds.9 mph66%30.09 "Hg10 mi
11:52 AM72 °FOvercast.10 mph66%30.11 "Hg10 mi
10:52 AM71 °FOvercast.12 mph66%30.11 "Hg10 mi
9:52 AM70 °FScattered clouds.12 mph71%30.11 "Hg10 mi
8:52 AM68 °FPassing clouds.9 mph76%30.09 "Hg10 mi
7:52 AM67 °FSunny.9 mph81%30.09 "Hg10 mi
6:52 AM66 °FClear.10 mph81%30.08 "Hg10 mi
5:52 AM66 °FClear.9 mph81%30.06 "Hg10 mi
4:52 AM66 °FClear.7 mph81%30.05 "Hg10 mi
3:52 AM67 °FOvercast.7 mph85%30.05 "Hg10 mi
2:52 AM68 °FOvercast.10 mph76%30.06 "Hg10 mi
1:52 AM68 °FPartly cloudy.9 mph82%30.06 "Hg10 mi
12:52 AM68 °FPassing clouds.8 mph84%30.06 "Hg10 mi
11:52 PM
Aug 22
69 °FOvercast.7 mph81%30.07 "Hg10 mi
10:52 PM70 °FPassing clouds.8 mph79%30.06 "Hg10 mi
9:52 PM70 °FOvercast.12 mph73%30.06 "Hg10 mi
8:52 PM71 °FMostly cloudy.10 mph73%30.06 "Hg10 mi
7:52 PM71 °FMore clouds than sun.10 mph78%30.05 "Hg10 mi
6:52 PM71 °FMore clouds than sun.12 mph76%30.05 "Hg10 mi
5:52 PM72 °FOvercast.10 mph71%30.04 "Hg10 mi
4:52 PM73 °FOvercast.14 mph66%30.03 "Hg10 mi
3:52 PM74 °FPartly sunny.14 mph69%30.03 "Hg10 mi
2:52 PM73 °FBroken clouds.13 mph66%30.04 "Hg10 mi
Weather by CustomWeather, © 2014

See weather overviewHow to use our weather pages